View from above orbital plane
|
View from above satellite
|
Ground track
|
The orbit data is extracted from the following two-line orbital elements,
1 19046U 88032B 21016.60248027 .00000468 00000-0 38802-4 0 9993
2 19046 97.3902 34.0865 0036724 199.4035 160.5795 15.02824135768972
Epoch (UTC): | 16 January 2021 14:27:34 |
Eccentricity: | 0.0036724 |
inclination: | 97.3902° |
perigee height: | 533 km |
apogee height: | 583 km |
right ascension of ascending node: | 34.0865° |
argument of perigee: | 199.4035° |
revolutions per day: | 15.02824135 |
mean anomaly at epoch: | 160.5795° |
orbit number at epoch: | 76897 |
The dashed part of the orbit path shows where the satellite is in the earth's shadow,
|
|